EW1015 Weather Reports


Display with metric or nautical units.
time (UTC)temp
F
wind
direction
speed
MPH
gust
MPH
rain 1hr
in
rain 24hr
in
rain mn
in
humidity
%
barometer
mb
20260902173021 82 230 3.0 7.0 0.00 0.24 0.24 35 1015.6
20260902171515 82 257 3.0 6.0 0.00 0.24 0.24 16 1015.6
20260902170013 80 71 2.0 7.0 0.00 0.24 0.24 20 1016.0
20260902164506 79 132 2.0 7.0 0.00 0.24 0.24 11 1016.1
20260902163001 79 171 3.0 8.0 0.00 0.24 0.24 11 1016.4
20260902161601 78 198 2.0 5.0 0.00 0.24 0.24 13 1016.5
20260902160059 77 221 2.0 5.0 0.00 0.24 0.24 100 1016.5
20260902154549 76 167 1.0 5.0 0.00 0.24 0.24 100 1016.7
20260902153044 76 158 1.0 4.0 0.00 0.24 0.24 100 1016.5
20260902151546 75 234 2.0 4.0 0.00 0.24 0.24 100 1016.5
20260902150035 74 307 0.0 6.0 0.00 0.24 0.24 100 1016.4
20260902144537 72 275 0.0 5.0 0.03 0.25 0.24 100 1016.7
20260902143029 71 148 1.0 2.0 0.13 0.25 0.24 100 1016.8
20260902141526 70 297 1.0 5.0 0.18 0.25 0.24 100 1016.7
20260902140025 70 204 2.0 4.0 0.24 0.25 0.24 100 1017.0
20260902134522 70 166 3.0 17.0 0.21 0.22 0.21 100 1017.4
20260902133018 71 238 2.0 4.0 0.11 0.12 0.11 100 1017.6
20260902131513 71 254 1.0 2.0 0.06 0.07 0.06 100 1017.2
20260902130008 71 308 2.0 4.0 0.00 0.01 0.00 100 1017.2
20260902124505 71 156 0.0 2.0 0.00 0.01 0.00 100 1016.4
20260902123139 71 198 0.0 3.0 0.00 0.01 0.00 100 1016.6
20260902121600 71 95 0.0 3.0 0.00 0.01 0.00 100 1016.1
20260902120105 71 107 1.0 2.0 0.00 0.01 0.00 100 1015.8
20260902114548 71 254 1.0 3.0 0.00 0.01 0.00 100 1015.7
20260902113043 70 111 0.0 2.0 0.00 0.01 0.00 100 1015.1
20260902111546 70 261 0.0 1.0 0.00 0.01 0.00 100 1015.6
20260902110035 70 133 0.0 2.0 0.00 0.01 0.00 100 1015.5
20260902104530 70 171 0.0 3.0 0.00 0.02 0.00 100 1015.4
20260902103025 70 133 1.0 3.0 0.00 0.02 0.00 100 1015.2
20260902101522 70 232 0.0 2.0 0.00 0.02 0.00 100 1015.4
20260902100017 68 99 2.0 3.0 0.00 0.02 0.00 100 1015.5
20260902094512 69 98 0.0 1.0 0.00 0.03 0.00 100 1015.9
20260902093011 70 98 0.0 2.0 0.00 0.03 0.00 100 1015.9
20260902091504 69 67 0.0 0.0 0.00 0.03 0.00 100 1016.0
20260902090059 69 67 1.0 2.0 0.00 0.03 0.00 100 1015.9
20260902084554 69 119 0.0 2.0 0.00 0.05 0.00 100 1016.0
20260902083052 68 144 0.0 2.0 0.00 0.05 0.00 100 1016.5
20260902081545 69 88 0.0 1.0 0.00 0.05 0.00 100 1016.5
20260902080042 69 97 0.0 3.0 0.00 0.05 0.00 100 1016.3
20260902074541 71 190 0.0 2.0 0.00 0.05 0.00 100 1016.6
20260902073033 70 207 1.0 3.0 0.00 0.05 0.00 100 1016.6
20260902071528 69 84 0.0 0.0 0.00 0.05 0.00 100 1016.6
20260902070023 69 76 0.0 1.0 0.00 0.05 0.00 100 1016.4
20260902064519 69 82 0.0 2.0 0.00 0.05 0.00 100 1016.3
20260902063027 68 80 0.0 1.0 0.00 0.05 0.00 100 1016.7
20260902061510 68 78 0.0 1.0 0.00 0.05 0.00 100 1016.8
20260902060005 68 66 0.0 2.0 0.00 0.05 0.00 100 1016.9
20260902054501 68 80 0.0 1.0 0.00 0.08 0.00 100 1016.9
20260902053057 68 80 1.0 2.0 0.00 0.08 0.00 100 1017.0
20260902051554 68 80 0.0 1.0 0.00 0.08 0.00 100 1017.0
20260902050100 68 80 1.0 2.0 0.00 0.08 0.00 100 1016.8
20260902044543 67 78 0.0 2.0 0.00 0.08 0.00 100 1016.7
20260902043045 69 78 0.0 2.0 0.00 0.08 0.00 100 1016.7
20260902041535 70 76 0.0 1.0 0.00 0.08 0.00 100 1016.8
20260902040030 70 76 0.0 1.0 0.00 0.08 0.00 100 1016.6
20260902034530 70 74 0.0 0.0 0.00 0.08 0.08 100 1016.5
20260902033031 70 74 0.0 2.0 0.00 0.08 0.08 100 1016.5
20260902031529 71 77 0.0 1.0 0.00 0.08 0.08 100 1016.6
20260902030029 71 68 0.0 2.0 0.00 0.08 0.08 100 1016.7
20260902024528 72 77 0.0 1.0 0.00 0.08 0.08 100 1016.6
20260902023028 71 72 0.0 1.0 0.00 0.08 0.08 100 1016.7
20260902021527 71 72 0.0 0.0 0.00 0.08 0.08 100 1016.9
20260902020028 71 72 0.0 1.0 0.00 0.08 0.08 100 1016.8
20260902014526 71 72 0.0 1.0 0.00 0.08 0.08 100 1016.7
20260902013030 72 72 0.0 1.0 0.00 0.08 0.08 100 1016.7
20260902011532 72 72 0.0 0.0 0.00 0.08 0.08 100 1016.5
20260902010025 72 72 0.0 1.0 0.00 0.08 0.08 100 1016.3
20260902004523 73 72 0.0 1.0 0.00 0.08 0.08 100 1016.1
20260902003028 73 72 0.0 0.0 0.00 0.08 0.08 100 1015.7
20260902001523 73 72 0.0 1.0 0.00 0.08 0.08 100 1015.3
20260902000024 74 70 0.0 3.0 0.00 0.08 0.08 100 1015.1
20260901234522 75 53 1.0 4.0 0.00 0.08 0.08 100 1015.2
20260901233022 76 46 1.0 2.0 0.00 0.08 0.08 100 1015.3
20260901231525 77 63 1.0 3.0 0.00 0.08 0.08 100 1015.4
20260901230020 77 55 0.0 2.0 0.00 0.08 0.08 100 1015.5
20260901224532 78 49 2.0 3.0 0.00 0.08 0.08 100 1015.5
20260901223020 79 74 1.0 4.0 0.00 0.08 0.08 100 1015.5
20260901221519 79 69 2.0 4.0 0.00 0.08 0.08 100 1015.3
20260901220018 79 355 0.0 2.0 0.00 0.08 0.08 100 1015.3
20260901214518 79 333 2.0 8.0 0.00 0.09 0.08 100 1015.3
20260901213021 80 51 3.0 5.0 0.00 0.09 0.08 100 1015.0
20260901211510 80 346 2.0 5.0 0.00 0.09 0.08 100 1015.1
20260901210004 79 51 1.0 5.0 0.00 0.09 0.08 100 1015.0
20260901204600 80 355 3.0 6.0 0.00 0.16 0.08 100 1015.3
20260901203056 80 44 3.0 7.0 0.00 0.16 0.08 100 1015.2
20260901201558 81 19 4.0 9.0 0.00 0.16 0.08 100 1015.3
20260901200047 80 29 3.0 6.0 0.00 0.16 0.08 100 1015.1
20260901194541 81 46 2.0 8.0 0.00 0.32 0.08 100 1015.1
20260901193037 80 104 3.0 8.0 0.00 0.32 0.08 100 1015.0
20260901191538 80 44 2.0 6.0 0.00 0.32 0.08 100 1015.2
20260901190028 80 341 3.0 8.0 0.00 0.32 0.08 100 1015.3
20260901184541 80 14 3.0 8.0 0.00 0.45 0.08 100 1015.2
20260901183019 80 288 4.0 9.0 0.00 0.45 0.08 100 1015.0
20260901181521 80 296 5.0 10.0 0.00 0.45 0.08 4 1015.0
20260901180010 80 310 3.0 11.0 0.00 0.45 0.08 100 1015.0
20260901174518 80 298 6.0 9.0 0.00 0.51 0.08 2 1014.9